Laredo, TX

10:03 AM CDT on March 23, 2017 (GMT -0500)
Laredo International

Weather History for KLRD - October, 2013

Change the Weather History Date:

Thursday, October 3, 2013

  Actual Average Record
Temperature  
Mean Temperature 84 °F 79 °F  
Max Temperature 94 °F 89 °F 103 °F (1994)
Min Temperature 74 °F 68 °F 46 °F (1975)
Degree Days  
Heating Degree Days 0 0  
Month to date heating degree days 0 0  
Since 1 July heating degree days 0 1  
Cooling Degree Days 19 14  
Month to date cooling degree days 60 42  
Year to date cooling degree days 4025 3827  
Growing Degree Days 33 (Base 50)    
Moisture  
Dew Point 71 °F    
Average Humidity 70    
Maximum Humidity 93    
Minimum Humidity 40    
Precipitation  
Precipitation 0.00 in 0.08 in 2.00 in (1910)
Month to date precipitation 0.00 0.25  
Year to date precipitation 16.22 16.17  
Sea Level Pressure  
Sea Level Pressure 29.85 in    
Wind  
Wind Speed 10 mph (SE)    
Max Wind Speed 18 mph    
Max Gust Speed 23 mph    
Visibility 10 miles    
Events      
T = Trace of Precipitation, MM = Missing Value Source: NWS Daily Summary

Daily Weather History Graph

Daily Weather History Graph

Search for Another Location

Airport or City:

Trip Planner

Search our weather history database for the weather conditions in past years. The results will help you decide how hot, cold, wet, or windy it might be!

Date:

Astronomy

Oct. 03, 2013 Rise Set
Actual Time 7:31 AM CDT 7:21 PM CDT
Civil Twilight 7:08 AM CDT 7:44 PM CDT
Nautical Twilight 6:41 AM CDT 8:11 PM CDT
Astronomical Twilight 6:14 AM CDT 8:38 PM CDT
Moon 6:11 AM CDT (10/3) 6:28 PM CDT (10/3)
Length of Visible Light 12h 36m
Length of Day
11h 49m
Waning Crescent, 2% of the Moon is Illuminated
Oct 3
Waning Crescent
Oct 4
New
Oct 11
First Quarter
Oct 18
Full
Oct 26
Last Quarter

Hourly Weather History & Observations

Time (CDT) Temp. Heat Index Dew Point Humidity Pressure Visibility Wind Dir Wind Speed Gust Speed Precip Events Conditions
12:56 AM 79.0 °F - 72.0 °F 79% 29.88 in 10.0 mi SE 11.5 mph - N/A   Clear
1:56 AM 77.9 °F - 72.0 °F 82% 29.87 in 10.0 mi SSE 12.7 mph - N/A   Clear
2:56 AM 77.0 °F - 72.0 °F 84% 29.84 in 10.0 mi SE 17.3 mph - N/A   Clear
3:56 AM 75.9 °F - 72.9 °F 90% 29.84 in 10.0 mi SSE 9.2 mph - N/A   Clear
4:37 AM 75.2 °F - 73.4 °F 94% 29.88 in 10.0 mi SSE 8.1 mph - N/A   Mostly Cloudy
4:56 AM 75.9 °F - 72.9 °F 90% 29.84 in 10.0 mi SE 9.2 mph - N/A   Partly Cloudy
5:56 AM 74.8 °F - 72.9 °F 94% 29.84 in 10.0 mi SE 6.9 mph - N/A   Clear
6:56 AM 74.8 °F - 72.9 °F 94% 29.85 in 10.0 mi SE 6.9 mph - N/A   Clear
7:56 AM 74.8 °F - 72.9 °F 94% 29.87 in 10.0 mi SE 6.9 mph - N/A   Clear
8:56 AM 77.0 °F - 72.9 °F 87% 29.89 in 10.0 mi SSE 5.8 mph - N/A   Clear
9:56 AM 81.0 °F 85.6 °F 72.9 °F 76% 29.91 in 10.0 mi SSE 9.2 mph - N/A   Partly Cloudy
10:56 AM 84.9 °F 91.4 °F 72.9 °F 67% 29.91 in 10.0 mi SSE 11.5 mph - N/A   Clear
11:56 AM 86.9 °F 94.1 °F 72.9 °F 63% 29.90 in 10.0 mi SSE 9.2 mph - N/A   Partly Cloudy
12:56 PM 88.9 °F 95.6 °F 72.0 °F 57% 29.87 in 10.0 mi Variable 6.9 mph - N/A   Clear
1:56 PM 90.9 °F 96.2 °F 70.0 °F 50% 29.85 in 10.0 mi SE 12.7 mph - N/A   Clear
2:56 PM 92.8 °F 97.1 °F 68.0 °F 44% 29.82 in 10.0 mi SE 12.7 mph - N/A   Partly Cloudy
3:56 PM 92.8 °F 97.1 °F 68.0 °F 44% 29.81 in 10.0 mi SE 13.8 mph 17.3 mph N/A   Clear
4:56 PM 92.8 °F 95.2 °F 64.9 °F 40% 29.79 in 10.0 mi SSE 10.4 mph 19.6 mph N/A   Clear
5:56 PM 91.9 °F 94.5 °F 65.8 °F 42% 29.79 in 10.0 mi SE 11.5 mph - N/A   Clear
6:56 PM 90.0 °F 92.4 °F 65.8 °F 45% 29.79 in 10.0 mi SE 11.5 mph - N/A   Clear
7:56 PM 86.9 °F 91.0 °F 68.9 °F 55% 29.80 in 10.0 mi ESE 8.1 mph - N/A   Partly Cloudy
8:56 PM 84.9 °F 88.8 °F 68.9 °F 59% 29.81 in 10.0 mi ESE 8.1 mph - N/A   Clear
9:56 PM 82.9 °F 87.0 °F 70.0 °F 65% 29.84 in 10.0 mi ESE 11.5 mph - N/A   Partly Cloudy
11:56 PM 79.9 °F - 70.9 °F 74% 29.86 in 10.0 mi ESE 11.5 mph - N/A   Clear